Meacham, OR

6:20 AM PDT on March 24, 2017 (GMT -0700)
Meacham

Weather History for KMEH - February, 2012

Change the Weather History Date:

Wednesday, February 15, 2012

  Actual Average Record
Temperature  
Mean Temperature 22 °F -  
Max Temperature 33 °F 37 °F 55 °F (1997)
Min Temperature 10 °F 20 °F -5 °F (2005)
Degree Days  
Heating Degree Days 42    
Moisture  
Dew Point 23 °F    
Average Humidity 88    
Maximum Humidity 93    
Minimum Humidity 64    
Precipitation  
Precipitation 0.01 in - - ()
Sea Level Pressure  
Sea Level Pressure 30.18 in    
Wind  
Wind Speed 1 mph (West)    
Max Wind Speed 5 mph    
Max Gust Speed -    
Visibility 5 miles    
Events Fog , Rain    
Averages and records for this station are not official NWS values.
T = Trace of Precipitation, MM = Missing Value Source: NWS Daily Summary

Daily Weather History Graph

Daily Weather History Graph

Search for Another Location

Airport or City:

Trip Planner

Search our weather history database for the weather conditions in past years. The results will help you decide how hot, cold, wet, or windy it might be!

Date:

Astronomy

Feb. 15, 2012 Rise Set
Actual Time 6:56 AM PST 5:20 PM PST
Civil Twilight 6:25 AM PST 5:50 PM PST
Nautical Twilight 5:50 AM PST 6:25 PM PST
Astronomical Twilight 5:16 AM PST 6:59 PM PST
Moon 2:03 AM PST (2/15) 11:09 AM PST (2/15)
Length of Visible Light 11h 25m
Length of Day
10h 24m
Last Quarter, 38% of the Moon is Illuminated
Feb 15
Last Quarter
Feb 21
New
Feb 29
First Quarter
Mar 8
Full
Mar 14
Last Quarter

Hourly Weather History & Observations

Time (PST) Temp. Windchill Dew Point Humidity Pressure Visibility Wind Dir Wind Speed Gust Speed Precip Events Conditions
12:04 AM - - - N/A% - - North - - N/A   Unknown
12:08 AM 26.6 °F - 24.8 °F 93% 29.98 in 2.5 mi Calm Calm - N/A   Overcast
12:20 AM 26.6 °F 22.6 °F 24.8 °F 93% 29.99 in 1.8 mi Variable 3.5 mph - N/A   Overcast
12:36 AM 26.6 °F - 24.8 °F 93% 30.00 in 2.0 mi Calm Calm - 0.00 in Rain Light Freezing Rain
12:46 AM 26.6 °F - 24.8 °F 93% 30.00 in 0.8 mi Calm Calm - 0.01 in Rain Light Freezing Rain
12:56 AM 27.0 °F - 24.1 °F 89% 30.09 in 0.5 mi Calm Calm - 0.01 in Fog , Rain Light Freezing Rain
1:10 AM 26.6 °F - 24.8 °F 93% 30.01 in 0.5 mi Calm Calm - 0.00 in Fog Light Freezing Fog
1:56 AM 26.1 °F - 24.1 °F 92% 30.11 in 0.8 mi Calm Calm - 0.00 in   Mist
2:15 AM 26.6 °F - 24.8 °F 93% 30.03 in 0.2 mi Calm Calm - N/A Fog Light Freezing Fog
2:37 AM 26.6 °F - 24.8 °F 93% 30.04 in 0.8 mi Calm Calm - N/A   Mist
2:54 AM 26.6 °F - 24.8 °F 93% 30.05 in 3.0 mi Calm Calm - N/A   Overcast
2:56 AM 26.1 °F - 24.1 °F 92% 30.14 in 3.0 mi Calm Calm - N/A   Overcast
3:08 AM 26.6 °F - 24.8 °F 93% 30.05 in 0.2 mi Calm Calm - N/A Fog Light Freezing Fog
3:34 AM 26.6 °F 22.6 °F 24.8 °F 93% 30.06 in 1.0 mi Variable 3.5 mph - 0.00 in Rain Light Freezing Rain
3:43 AM 26.6 °F - 24.8 °F 93% 30.06 in 2.0 mi Calm Calm - 0.00 in Rain Light Freezing Rain
3:56 AM 27.0 °F 21.6 °F 25.0 °F 92% 30.15 in 1.2 mi West 4.6 mph - 0.00 in Rain Light Freezing Rain
4:02 AM 26.6 °F 22.6 °F 24.8 °F 93% 30.07 in 0.2 mi West 3.5 mph - 0.00 in Fog , Rain Light Freezing Rain
4:15 AM 26.6 °F - 24.8 °F 93% 30.07 in 0.2 mi Calm Calm - 0.00 in Fog , Rain Light Freezing Rain
4:29 AM 26.6 °F 22.6 °F 24.8 °F 93% 30.08 in 0.2 mi West 3.5 mph - 0.00 in Fog Light Freezing Fog
4:56 AM 27.0 °F - 24.1 °F 89% 30.17 in 0.2 mi Calm Calm - 0.00 in Fog Light Freezing Fog
5:56 AM 26.1 °F - 24.1 °F 92% 30.21 in 0.2 mi Calm Calm - N/A Fog Light Freezing Fog
6:19 AM 26.6 °F - 24.8 °F 93% 30.11 in 0.5 mi Calm Calm - N/A Fog Light Freezing Fog
6:44 AM 26.6 °F - 24.8 °F 93% 30.11 in 1.5 mi Calm Calm - N/A   Overcast
6:56 AM 26.1 °F - 24.1 °F 92% 30.22 in 1.2 mi Calm Calm - N/A   Overcast
7:10 AM 26.6 °F - 24.8 °F 93% 30.12 in 2.0 mi Calm Calm - N/A   Overcast
7:29 AM 26.6 °F - 24.8 °F 93% 30.12 in 5.0 mi Calm Calm - N/A   Overcast
7:56 AM 26.1 °F 21.9 °F 24.1 °F 92% 30.22 in 4.0 mi Variable 3.5 mph - N/A   Overcast
8:56 AM 26.1 °F - 24.1 °F 92% 30.26 in 10.0 mi Calm Calm - N/A   Overcast
9:03 AM 26.6 °F - 24.8 °F 93% 30.16 in 10.0 mi Calm Calm - N/A   Overcast
9:56 AM 27.0 °F - 25.0 °F 92% 30.29 in 10.0 mi Calm Calm - N/A   Overcast
10:56 AM 27.0 °F - 25.0 °F 92% 30.31 in 10.0 mi Calm Calm - N/A   Overcast
11:18 AM 28.4 °F 24.6 °F 24.8 °F 86% 30.20 in 10.0 mi WSW 3.5 mph - N/A   Mostly Cloudy
11:56 AM 28.0 °F - 25.0 °F 88% 30.30 in 10.0 mi Calm Calm - N/A   Mostly Cloudy
12:19 PM 28.4 °F - 24.8 °F 86% 30.20 in 10.0 mi Calm Calm - N/A   Mostly Cloudy
12:56 PM 28.9 °F - 24.1 °F 82% 30.29 in 10.0 mi Calm Calm - N/A   Scattered Clouds
1:56 PM 32.0 °F - 24.1 °F 73% 30.28 in 10.0 mi Calm Calm - N/A   Scattered Clouds
2:08 PM 30.2 °F - 23.0 °F 75% 30.19 in 10.0 mi Calm Calm - N/A   Mostly Cloudy
2:56 PM 33.1 °F - 21.9 °F 64% 30.29 in 10.0 mi Calm Calm - N/A   Scattered Clouds
3:56 PM 32.0 °F 28.7 °F 24.1 °F 73% 30.30 in 10.0 mi Variable 3.5 mph - N/A   Scattered Clouds
4:56 PM 28.9 °F - 24.1 °F 82% 30.31 in 10.0 mi Calm Calm - N/A   Clear
5:56 PM 26.1 °F - 21.0 °F 81% 30.33 in 10.0 mi Calm Calm - N/A   Clear
6:56 PM 23.0 °F - 19.0 °F 85% 30.36 in 10.0 mi Calm Calm - N/A   Clear
7:56 PM 19.9 °F - 16.0 °F 85% 30.37 in 10.0 mi Calm Calm - N/A   Clear
8:56 PM 18.0 °F - 12.0 °F 78% 30.37 in 10.0 mi Calm Calm - N/A   Clear
9:56 PM 15.1 °F - 9.0 °F 77% 30.39 in 10.0 mi Calm Calm - N/A   Clear
10:56 PM 12.9 °F - 7.0 °F 77% 30.40 in 10.0 mi Calm Calm - N/A   Clear
11:56 PM 10.9 °F - 5.0 °F 77% 30.39 in 9.0 mi Calm Calm - N/A   Clear